This demonstration page uses our WeatherBlox Daily Observations layout. Learn more.

Hourly Observations for April 5, 2019

Temp ( °F °C ) Dew Point ( °F °C ) Humidity (%) Winds ( mph kmh ) Pressure ( in mb ) Visibility ( mi km ) Precip ( " mm )
12:15 am 00:15 Clear 54 12 36 2 51 51 Calm 30.39 1029 10 16.09344 0 0
12:35 am 00:35 Clear 54 12 36 2 51 51 ESE 3 6 30.39 1029 10 16.09344 0 0
12:55 am 00:55 Clear 54 12 36 2 51 51 E 5 7 30.39 1029 10 16.09344 0 0
1:15 am 01:15 Clear 52 11 37 3 58 58 Calm 30.39 1029 10 16.09344 0 0
1:35 am 01:35 Clear 54 12 34 1 47 47 E 3 6 30.39 1029 10 16.09344 0 0
1:55 am 01:55 Clear 54 12 34 1 47 47 Calm 30.39 1029 10 16.09344 0 0
2:15 am 02:15 Partly Cloudy 50 10 39 4 67 67 Calm 30.39 1029 10 16.09344 0 0
2:35 am 02:35 Mostly Cloudy 52 11 36 2 54 54 Calm 30.39 1029 10 16.09344 0 0
2:55 am 02:55 Cloudy 48 9 41 5 76 76 Calm 30.39 1029 10 16.09344 0 0
3:15 am 03:15 Cloudy 52 11 36 2 54 54 ENE 5 7 30.36 1028 10 16.09344 0 0
3:35 am 03:35 Cloudy 52 11 36 2 54 54 NE 5 7 30.36 1028 10 16.09344 0 0
3:55 am 03:55 Cloudy 52 11 37 3 58 58 Calm 30.39 1029 10 16.09344 0 0
4:15 am 04:15 Cloudy 50 10 41 5 71 71 Calm 30.39 1029 10 16.09344 0 0
4:35 am 04:35 Cloudy 50 10 41 5 71 71 Calm 30.39 1029 10 16.09344 0 0
4:55 am 04:55 Cloudy 50 10 41 5 71 71 Calm 30.39 1029 10 16.09344 0 0
5:15 am 05:15 Cloudy 48 9 43 6 82 82 Calm 30.39 1029 5 8.04672 0 0
5:35 am 05:35 Cloudy 46 8 43 6 87 87 ENE 3 6 30.39 1029 7 11.265408 0 0
5:55 am 05:55 Cloudy 46 8 45 7 93 93 ENE 3 6 30.39 1029 7 11.265408 0 0
6:15 am 06:15 Cloudy 45 7 45 7 100 100 NE 5 7 30.39 1029 10 16.09344 0 0
6:35 am 06:35 Cloudy 45 7 45 7 100 100 Calm 30.39 1029 7 11.265408 0 0
6:55 am 06:55 Cloudy 45 7 45 7 100 100 Calm 30.42 1030 7 11.265408 0 0
7:15 am 07:15 Cloudy 45 7 45 7 100 100 ENE 5 7 30.42 1030 7 11.265408 0 0
7:35 am 07:35 Cloudy 45 7 45 7 100 100 E 3 6 30.42 1030 5 8.04672 0 0
7:55 am 07:55 Cloudy 45 7 45 7 100 100 E 6 9 30.39 1029 7 11.265408 0 0
8:15 am 08:15 Cloudy 45 7 45 7 100 100 E 5 7 30.39 1029 7 11.265408 0 0
8:35 am 08:35 Cloudy 45 7 45 7 100 100 ESE 5 7 30.42 1030 10 16.09344 0 0
8:55 am 08:55 Cloudy 45 7 45 7 100 100 ESE 3 6 30.42 1030 10 16.09344 0 0
9:15 am 09:15 Cloudy 45 7 45 7 100 100 Calm 30.42 1030 10 16.09344 0 0
9:35 am 09:35 Cloudy 45 7 45 7 100 100 Calm 30.42 1030 10 16.09344 0 0
9:55 am 09:55 Cloudy 45 7 43 6 93 93 Calm 30.42 1030 10 16.09344 0 0
10:15 am 10:15 Cloudy 45 7 43 6 93 93 E 8 13 30.42 1030 7 11.265408 0 0
10:35 am 10:35 Cloudy 45 7 43 6 93 93 E 7 11 30.39 1029 7 11.265408 0 0
10:55 am 10:55 Cloudy 45 7 43 6 93 93 SE 7 11 30.42 1030 10 16.09344 0 0
11:15 am 11:15 Cloudy 45 7 43 6 93 93 SE 7 11 30.42 1030 10 16.09344 0 0
11:35 am 11:35 Cloudy 45 7 41 5 87 87 E 9 15 30.39 1029 10 16.09344 0 0
11:55 am 11:55 Cloudy 45 7 41 5 87 87 E 8 13 30.39 1029 10 16.09344 0 0
12:15 pm 12:15 Cloudy 45 7 41 5 87 87 E 6 9 30.36 1028 10 16.09344 0 0
12:35 pm 12:35 Cloudy 45 7 43 6 93 93 ENE 6 9 30.36 1028 10 16.09344 0 0
12:55 pm 12:55 Cloudy 45 7 43 6 93 93 ENE 3 6 30.36 1028 10 16.09344 0 0
1:15 pm 13:15 Cloudy 45 7 41 5 87 87 SE 3 6 30.36 1028 10 16.09344 0 0
1:35 pm 13:35 Cloudy 46 8 43 6 87 87 NE 7 11 30.33 1027 10 16.09344 0 0
1:55 pm 13:55 Cloudy 46 8 43 6 87 87 ENE 3 6 30.33 1027 10 16.09344 0 0
2:15 pm 14:15 Cloudy 46 8 43 6 87 87 Calm 30.3 1026 10 16.09344 0 0
2:35 pm 14:35 Cloudy 46 8 43 6 87 87 ENE 3 6 30.3 1026 10 16.09344 0 0
2:55 pm 14:55 Cloudy 46 8 43 6 87 87 Calm 30.3 1026 10 16.09344 0 0
3:15 pm 15:15 Cloudy 46 8 45 7 93 93 Calm 30.3 1026 10 16.09344 0 0
3:35 pm 15:35 Cloudy 46 8 45 7 93 93 E 3 6 30.3 1026 7 11.265408 0 0
3:55 pm 15:55 Cloudy 48 9 45 7 87 87 Calm 30.3 1026 10 16.09344 0 0
4:15 pm 16:15 Cloudy 46 8 45 7 93 93 ENE 3 6 30.3 1026 10 16.09344 0 0
4:35 pm 16:35 Cloudy 46 8 45 7 93 93 E 3 6 30.3 1026 5 8.04672 0 0
4:55 pm 16:55 Cloudy 46 8 45 7 93 93 E 6 9 30.27 1025 4 6.437376 0 0
5:15 pm 17:15 Cloudy 46 8 45 7 93 93 NE 3 6 30.27 1025 4 6.437376 0 0
5:35 pm 17:35 Cloudy 45 7 45 7 100 100 NE 3 6 30.27 1025 5 8.04672 0 0
5:55 pm 17:55 Cloudy 45 7 45 7 100 100 NE 5 7 30.27 1025 5 8.04672 0 0
6:15 pm 18:15 Cloudy 45 7 45 7 100 100 NE 7 11 30.27 1025 5 8.04672 0 0
6:35 pm 18:35 Cloudy 45 7 45 7 100 100 NE 6 9 30.3 1026 5 8.04672 0 0
6:55 pm 18:55 Cloudy 45 7 45 7 100 100 NNE 5 7 30.27 1025 5 8.04672 0 0
7:15 pm 19:15 Cloudy 45 7 45 7 100 100 NE 5 7 30.27 1025 2.5 4.02336 0 0
7:35 pm 19:35 Cloudy 45 7 45 7 100 100 NE 6 9 30.27 1025 4 6.437376 0 0
7:55 pm 19:55 Cloudy 45 7 45 7 100 100 N 5 7 30.27 1025 3 4.828032 0 0
8:15 pm 20:15 Cloudy 43 6 43 6 100 100 N 7 11 30.27 1025 3 4.828032 0 0
8:35 pm 20:35 Cloudy 43 6 43 6 100 100 NNE 3 6 30.27 1025 2.5 4.02336 0 0
8:55 pm 20:55 Cloudy 43 6 43 6 100 100 NNE 5 7 30.27 1025 2.5 4.02336 0 0
9:15 pm 21:15 Cloudy 43 6 43 6 100 100 NNE 6 9 30.27 1025 4 6.437376 0 0
9:35 pm 21:35 Cloudy 43 6 43 6 100 100 NNE 6 9 30.27 1025 4 6.437376 0 0
9:55 pm 21:55 Cloudy 43 6 43 6 100 100 NNE 5 7 30.27 1025 4 6.437376 0 0
10:15 pm 22:15 Cloudy 43 6 43 6 100 100 NNE 5 7 30.27 1025 4 6.437376 0 0
10:35 pm 22:35 Cloudy 43 6 43 6 100 100 NNE 7 11 30.27 1025 4 6.437376 0 0
10:55 pm 22:55 Cloudy 43 6 43 6 100 100 NNE 6 9 30.27 1025 4 6.437376 0 0
11:15 pm 23:15 Cloudy 43 6 43 6 100 100 N 5 7 30.27 1025 4 6.437376 0 0
11:35 pm 23:35 Cloudy 41 5 41 5 100 100 N 6 9 30.27 1025 3 4.828032 0 0
11:55 pm 23:55 Cloudy 41 5 41 5 100 100 N 3 6 30.27 1025 2.5 4.02336 0 0

Powered by AerisWeather